Flag for Germany Weather past 2 weeks in Osnabrück, Lower Saxony, Germany

Now
54 °F

Drizzle. Fog.


Feels Like: 49 °F
Forecast: 42 / 53 °F
Wind: 17 mph from Southwest

Location: Muenster / Osnabrueck

Current Time: Dec 18, 2014 at 5:55:51 PM

Latest Report: Dec 18, 2014 at 5:20 PM


Visibility: 3 mi

Pressure: 29.74 "Hg

Humidity: 94%

Dew point: 52 °F

Location of OsnabrückLocation

Historic Weather in Osnabrück — Graph

°F

Osnabrück temperature yesterday

Maximum temperature yesterday: 48 °F (at 6:20 PM)
Minimum temperature yesterday: 36 °F (at 12:20 AM)
Average temperature yesterday: 42 °F

Past Weeks' High & Low Weather Summary

 TemperatureHumidityPressure
High54 °F (Dec 18, 2:20 PM)100% (Dec 5, 12:20 AM)30.36 "Hg (Dec 5, 12:20 AM)
Low27 °F (Dec 3, 4:20 PM)70% (Dec 10, 4:50 AM)29.33 "Hg (Dec 12, 12:50 PM)
Average40 °F90%29.92 "Hg
* Reported Dec 3 4:20 PM — Dec 18 4:20 PM, Osnabrück, Weather by CustomWeather, © 2014

Note: Actual official high and low records may vary slightly from our data, if they occured in-between our weather recording intervals... More about our weather records

Advertising

Osnabrück weather history for previous 24 hours

 ConditionsComfort  
Time TempWeatherWind HumidityBarometerVisibility
4:20 PM
Dec 18
54 °FDrizzle. Fog.14 mph100%29.74 "Hg2 mi
3:50 PM54 °FFog.15 mph94%29.74 "Hg3 mi
3:20 PM54 °FDrizzle. Fog.14 mph100%29.74 "Hg2 mi
2:50 PM54 °FDrizzle. Fog.13 mph100%29.74 "Hg2 mi
2:20 PM54 °FDrizzle. Fog.13 mph100%29.74 "Hg2 mi
1:50 PM52 °FDrizzle. Fog.13 mph100%29.74 "Hg2 mi
1:20 PM52 °FDrizzle. Fog.10 mph100%29.77 "Hg2 mi
12:50 PM52 °FDrizzle. More clouds than sun.10 mph100%29.77 "Hg4 mi
12:20 PM52 °FDrizzle. Fog.10 mph100%29.77 "Hg3 mi
11:50 AM52 °FDrizzle. Broken clouds.10 mph100%29.77 "Hg4 mi
11:20 AM52 °FDrizzle. Broken clouds.10 mph100%29.77 "Hg4 mi
10:50 AM52 °FDrizzle. Broken clouds.8 mph100%29.80 "Hg4 mi
10:20 AM52 °FDrizzle. Broken clouds.9 mph100%29.80 "Hg4 mi
9:50 AM52 °FDrizzle. Broken clouds.9 mph100%29.80 "Hg4 mi
9:20 AM52 °FBroken clouds.12 mph94%29.77 "Hg4 mi
8:50 AM52 °FFog.10 mph100%29.77 "Hg3 mi
8:20 AM50 °FDrizzle. Fog.10 mph100%29.77 "Hg3 mi
7:50 AM50 °FDrizzle. Fog.7 mph100%29.77 "Hg2 mi
7:20 AM50 °FFog.8 mph100%29.77 "Hg2 mi
6:50 AM50 °FFog.8 mph100%29.77 "Hg3 mi
6:20 AM50 °FFog.8 mph100%29.77 "Hg3 mi
5:50 AM50 °FDrizzle. Fog.9 mph100%29.77 "Hg2 mi
5:20 AM50 °FFog.9 mph100%29.77 "Hg3 mi
4:20 AM50 °FPassing clouds.9 mph94%29.77 "Hg4 mi
3:50 AM50 °FPassing clouds.7 mph94%29.77 "Hg4 mi
3:20 AM50 °FPassing clouds.8 mph94%29.77 "Hg4 mi
2:50 AM50 °FPassing clouds.7 mph94%29.77 "Hg4 mi
2:20 AM50 °FPassing clouds.9 mph94%29.77 "Hg4 mi
1:50 AM50 °FPassing clouds.9 mph94%29.77 "Hg4 mi
1:20 AM50 °FPassing clouds.8 mph94%29.77 "Hg4 mi
12:50 AM50 °FPassing clouds.7 mph100%29.77 "Hg4 mi
12:20 AM48 °FPassing clouds.8 mph100%29.77 "Hg4 mi
11:50 PM
Dec 17
48 °FPassing clouds.8 mph100%29.77 "Hg4 mi
11:20 PM48 °FPartly cloudy.9 mph100%29.74 "Hg4 mi
10:50 PM48 °FPartly cloudy.8 mph100%29.74 "Hg4 mi
10:20 PM48 °FPartly cloudy.7 mph100%29.74 "Hg4 mi
9:50 PM48 °FPassing clouds.7 mph100%29.71 "Hg4 mi
9:20 PM48 °FPassing clouds.7 mph100%29.71 "Hg4 mi
8:50 PM48 °FPassing clouds.7 mph100%29.71 "Hg4 mi
8:20 PM48 °FPartly cloudy.9 mph100%29.68 "Hg4 mi
7:50 PM48 °FPartly cloudy.8 mph100%29.68 "Hg4 mi
7:20 PM48 °FPartly cloudy.8 mph100%29.65 "Hg4 mi
6:50 PM48 °FPassing clouds.8 mph100%29.65 "Hg4 mi
6:20 PM48 °FFog.8 mph100%29.62 "Hg3 mi
5:50 PM46 °FDrizzle. Fog.8 mph100%29.62 "Hg2 mi
5:20 PM46 °FDrizzle. Fog.8 mph100%29.62 "Hg2 mi
Weather by CustomWeather, © 2014

See weather overviewHow to use our weather pages